Location: Newark
(7.0858°N, 171.3717°E)
Time: 10:48:27
(UTC+00:00)

A-11 Canister half - Pass Details

Date: 08 December 2020
Orbit: 1517 x 1683 km, 47.2° (Epoch: 19 January)

Event Time Altitude Azimuth Distance (km) Brightness Sun altitude
Rises 16:34:43 0° 181° (S) 4,654 11.8 -28.5°
Reaches altitude 10° 16:40:17 10° 154° (SSE) 3,676 11.6 -27.2°
Maximum altitude 16:43:57 13° 130° (SE) 3,464 11.7 -26.4°
Drops below altitude 10° 16:47:38 10° 106° (ESE) 3,698 12.0 -25.5°
Sets 16:53:11 0° 80° (E) 4,710 12.5 -24.3°
